Time,TemperatureF,DewpointF,PressureIn,WindDirection,WindDirectionDegrees,WindSpeedMPH,WindSpeedGustMPH,Humidity,HourlyPrecipIn,Conditions,Clouds,dailyrainin,SoftwareType,DateUTC
2013-06-01 00:03:00,79.0,58.0,30.05,SW,231,1.0,-999.0,49,-99.99,,,-99.99,,2013-06-01 04:03:00,
2013-06-01 00:12:00,79.0,58.0,30.05,SW,230,0.0,-999.0,49,-99.99,,,-99.99,,2013-06-01 04:12:00,
2013-06-01 00:23:00,79.0,58.0,30.05,SW,230,0.0,-999.0,49,-99.99,,,-99.99,,2013-06-01 04:23:00,
2013-06-01 00:33:00,78.0,59.0,30.05,SW,230,0.0,-999.0,52,-99.99,,,-99.99,,2013-06-01 04:33:00,
2013-06-01 00:42:00,77.0,59.0,30.05,SW,231,2.0,-999.0,53,-99.99,,,-99.99,,2013-06-01 04:42:00,
2013-06-01 00:53:00,77.0,59.0,30.05,SW,231,2.0,-999.0,53,-99.99,,,-99.99,,2013-06-01 04:53:00,
2013-06-01 01:02:00,77.0,59.0,30.05,SW,231,0.0,-999.0,53,-99.99,,,-99.99,,2013-06-01 05:02:00,
2013-06-01 01:12:00,77.0,59.0,30.05,SW,231,0.0,-999.0,53,-99.99,,,-99.99,,2013-06-01 05:12:00,
2013-06-01 01:22:00,77.0,59.0,30.06,SW,231,0.0,-999.0,54,-99.99,,,-99.99,,2013-06-01 05:22:00,
2013-06-01 01:32:00,76.0,60.0,30.06,SW,231,0.0,-999.0,57,-99.99,,,-99.99,,2013-06-01 05:32:00,
2013-06-01 01:42:00,76.0,60.0,30.05,SW,231,0.0,-999.0,57,-99.99,,,-99.99,,2013-06-01 05:42:00,
2013-06-01 01:52:00,76.0,60.0,30.05,SW,231,0.0,-999.0,57,-99.99,,,-99.99,,2013-06-01 05:52:00,
2013-06-01 02:01:00,76.0,61.0,30.05,SW,231,3.0,-999.0,59,-99.99,,,-99.99,,2013-06-01 06:01:00,
2013-06-01 02:12:00,76.0,61.0,30.05,SW,231,2.0,-999.0,60,-99.99,,,-99.99,,2013-06-01 06:12:00,
2013-06-01 02:22:00,76.0,61.0,30.05,SW,231,2.0,-999.0,60,-99.99,,,-99.99,,2013-06-01 06:22:00,
2013-06-01 02:32:00,76.0,62.0,30.06,SW,231,4.0,-999.0,62,-99.99,,,-99.99,,2013-06-01 06:32:00,
2013-06-01 02:42:00,75.0,61.0,30.05,SW,231,1.0,-999.0,62,-99.99,,,-99.99,,2013-06-01 06:42:00,
2013-06-01 02:52:00,75.0,61.0,30.05,SW,231,1.0,-999.0,62,-99.99,,,-99.99,,2013-06-01 06:52:00,
2013-06-01 03:01:00,75.0,62.0,30.05,SW,231,0.0,-999.0,64,-99.99,,,-99.99,,2013-06-01 07:01:00,
2013-06-01 03:11:00,75.0,62.0,30.05,SW,231,0.0,-999.0,64,-99.99,,,-99.99,,2013-06-01 07:11:00,
2013-06-01 03:22:00,74.0,61.0,30.05,SW,231,2.0,-999.0,65,-99.99,,,-99.99,,2013-06-01 07:22:00,
2013-06-01 03:32:00,74.0,62.0,30.05,SW,231,2.0,-999.0,67,-99.99,,,-99.99,,2013-06-01 07:32:00,
2013-06-01 03:42:00,74.0,63.0,30.04,SW,231,0.0,-999.0,68,-99.99,,,-99.99,,2013-06-01 07:42:00,
2013-06-01 03:52:00,74.0,63.0,30.04,SW,231,0.0,-999.0,68,-99.99,,,-99.99,,2013-06-01 07:52:00,
2013-06-01 04:02:00,74.0,64.0,30.05,SW,231,3.0,-999.0,70,-99.99,,,-99.99,,2013-06-01 08:02:00,
2013-06-01 04:11:00,73.0,63.0,30.04,SW,231,3.0,-999.0,71,-99.99,,,-99.99,,2013-06-01 08:11:00,
2013-06-01 04:22:00,73.0,63.0,30.04,SW,231,3.0,-999.0,71,-99.99,,,-99.99,,2013-06-01 08:22:00,
2013-06-01 04:32:00,73.0,63.0,30.04,SW,231,0.0,-999.0,72,-99.99,,,-99.99,,2013-06-01 08:32:00,
2013-06-01 04:42:00,73.0,63.0,30.04,SW,231,0.0,-999.0,72,-99.99,,,-99.99,,2013-06-01 08:42:00,
2013-06-01 04:52:00,73.0,63.0,30.04,SW,231,0.0,-999.0,72,-99.99,,,-99.99,,2013-06-01 08:52:00,
2013-06-01 05:02:00,73.0,64.0,30.05,SW,231,0.0,-999.0,73,-99.99,,,-99.99,,2013-06-01 09:02:00,
2013-06-01 05:12:00,73.0,64.0,30.05,SW,231,0.0,-999.0,73,-99.99,,,-99.99,,2013-06-01 09:12:00,
2013-06-01 05:21:00,73.0,64.0,30.05,SW,231,1.0,-999.0,74,-99.99,,,-99.99,,2013-06-01 09:21:00,
2013-06-01 05:33:00,72.0,64.0,30.05,SW,231,0.0,-999.0,76,-99.99,,,-99.99,,2013-06-01 09:33:00,
2013-06-01 05:42:00,72.0,64.0,30.05,SW,231,0.0,-999.0,76,-99.99,,,-99.99,,2013-06-01 09:42:00,
2013-06-01 05:53:00,72.0,64.0,30.05,SW,231,0.0,-999.0,76,-99.99,,,-99.99,,2013-06-01 09:53:00,
2013-06-01 06:02:00,72.0,64.0,30.05,SW,231,0.0,-999.0,77,-99.99,,,-99.99,,2013-06-01 10:02:00,
2013-06-01 06:13:00,72.0,64.0,30.05,SW,231,0.0,-999.0,77,-99.99,,,-99.99,,2013-06-01 10:13:00,
2013-06-01 06:22:00,72.0,64.0,30.05,SW,230,0.0,-999.0,77,-99.99,,,-99.99,,2013-06-01 10:22:00,
2013-06-01 06:33:00,72.0,65.0,30.06,SW,231,0.0,-999.0,78,-99.99,,,-99.99,,2013-06-01 10:33:00,
2013-06-01 06:42:00,72.0,65.0,30.06,SW,231,0.0,-999.0,78,-99.99,,,-99.99,,2013-06-01 10:42:00,
2013-06-01 06:52:00,72.0,65.0,30.06,SW,231,0.0,-999.0,78,-99.99,,,-99.99,,2013-06-01 10:52:00,
2013-06-01 07:03:00,73.0,65.0,30.05,SW,230,4.0,-999.0,75,-99.99,,,-99.99,,2013-06-01 11:03:00,
2013-06-01 07:11:00,73.0,65.0,30.05,SW,230,4.0,-999.0,75,-99.99,,,-99.99,,2013-06-01 11:11:00,
2013-06-01 07:21:00,73.0,65.0,30.06,SW,230,3.0,-999.0,75,-99.99,,,-99.99,,2013-06-01 11:21:00,
2013-06-01 07:33:00,74.0,66.0,30.06,SSW,211,0.0,-999.0,75,-99.99,,,-99.99,,2013-06-01 11:33:00,
2013-06-01 07:42:00,74.0,65.0,30.06,SW,218,2.0,-999.0,73,-99.99,,,-99.99,,2013-06-01 11:42:00,
2013-06-01 07:52:00,74.0,65.0,30.06,SW,218,2.0,-999.0,73,-99.99,,,-99.99,,2013-06-01 11:52:00,
2013-06-01 08:01:00,74.0,64.0,30.06,SW,227,4.0,-999.0,72,-99.99,,,-99.99,,2013-06-01 12:01:00,
2013-06-01 08:12:00,74.0,64.0,30.06,SW,227,4.0,-999.0,72,-99.99,,,-99.99,,2013-06-01 12:12:00,
2013-06-01 08:22:00,75.0,65.0,30.06,SW,226,5.0,-999.0,72,-99.99,,,-99.99,,2013-06-01 12:22:00,
2013-06-01 08:32:00,76.0,65.0,30.06,WSW,253,9.0,-999.0,69,-99.99,,,-99.99,,2013-06-01 12:32:00,
2013-06-01 08:42:00,76.0,65.0,30.07,SW,229,7.0,-999.0,68,-99.99,,,-99.99,,2013-06-01 12:42:00,
2013-06-01 08:52:00,76.0,65.0,30.07,SW,229,7.0,-999.0,68,-99.99,,,-99.99,,2013-06-01 12:52:00,
2013-06-01 09:01:00,77.0,65.0,30.06,WSW,239,4.0,-999.0,66,-99.99,,,-99.99,,2013-06-01 13:01:00,
2013-06-01 09:11:00,77.0,65.0,30.06,WSW,239,4.0,-999.0,66,-99.99,,,-99.99,,2013-06-01 13:11:00,
2013-06-01 09:22:00,78.0,65.0,30.07,SW,231,5.0,-999.0,65,-99.99,,,-99.99,,2013-06-01 13:22:00,
2013-06-01 09:32:00,79.0,65.0,30.06,SW,229,7.0,-999.0,63,-99.99,,,-99.99,,2013-06-01 13:32:00,
2013-06-01 09:42:00,79.0,65.0,30.05,SW,223,7.0,-999.0,62,-99.99,,,-99.99,,2013-06-01 13:42:00,
2013-06-01 09:52:00,79.0,65.0,30.05,SW,223,7.0,-999.0,62,-99.99,,,-99.99,,2013-06-01 13:52:00,
2013-06-01 10:02:00,80.0,65.0,30.05,SW,224,9.0,-999.0,60,-99.99,,,-99.99,,2013-06-01 14:02:00,
2013-06-01 10:11:00,80.0,65.0,30.05,SW,224,9.0,-999.0,60,-99.99,,,-99.99,,2013-06-01 14:11:00,
2013-06-01 10:21:00,80.0,64.0,30.05,SW,222,6.0,-999.0,59,-99.99,,,-99.99,,2013-06-01 14:21:00,
2013-06-01 10:32:00,81.0,64.0,30.04,SW,223,3.0,-999.0,57,-99.99,,,-99.99,,2013-06-01 14:32:00,
2013-06-01 10:42:00,81.0,64.0,30.04,SW,223,3.0,-999.0,57,-99.99,,,-99.99,,2013-06-01 14:42:00,
2013-06-01 10:52:00,82.0,65.0,30.04,SSW,210,4.0,-999.0,57,-99.99,,,-99.99,,2013-06-01 14:52:00,
2013-06-01 11:02:00,83.0,65.0,30.04,SW,227,4.0,-999.0,54,-99.99,,,-99.99,,2013-06-01 15:02:00,
2013-06-01 11:11:00,83.0,65.0,30.04,SW,227,4.0,-999.0,54,-99.99,,,-99.99,,2013-06-01 15:11:00,
2013-06-01 11:21:00,84.0,65.0,30.03,SW,214,7.0,-999.0,53,-99.99,,,-99.99,,2013-06-01 15:21:00,
2013-06-01 11:33:00,85.0,65.0,30.04,SW,222,0.0,-999.0,52,-99.99,,,-99.99,,2013-06-01 15:33:00,
2013-06-01 11:43:00,85.0,65.0,30.04,SW,222,0.0,-999.0,52,-99.99,,,-99.99,,2013-06-01 15:43:00,
2013-06-01 11:53:00,85.0,64.0,30.03,SW,226,3.0,-999.0,50,-99.99,,,-99.99,,2013-06-01 15:53:00,
2013-06-01 12:03:00,86.0,65.0,30.03,South,171,0.0,-999.0,49,-99.99,,,-99.99,,2013-06-01 16:03:00,
2013-06-01 12:12:00,86.0,65.0,30.03,South,171,0.0,-999.0,49,-99.99,,,-99.99,,2013-06-01 16:12:00,
2013-06-01 12:23:00,86.0,63.0,30.03,SSW,211,0.0,-999.0,47,-99.99,,,-99.99,,2013-06-01 16:23:00,
2013-06-01 12:33:00,86.0,63.0,30.03,WSW,241,3.0,-999.0,47,-99.99,,,-99.99,,2013-06-01 16:33:00,
2013-06-01 12:42:00,87.0,64.0,30.02,SW,223,4.0,-999.0,47,-99.99,,,-99.99,,2013-06-01 16:42:00,
2013-06-01 12:52:00,87.0,64.0,30.02,SW,223,4.0,-999.0,47,-99.99,,,-99.99,,2013-06-01 16:52:00,
2013-06-01 13:02:00,87.0,63.0,30.02,South,172,4.0,-999.0,45,-99.99,,,-99.99,,2013-06-01 17:02:00,
2013-06-01 13:12:00,87.0,63.0,30.02,South,172,4.0,-999.0,45,-99.99,,,-99.99,,2013-06-01 17:12:00,
2013-06-01 13:22:00,87.0,64.0,30.02,SW,222,15.0,-999.0,46,-99.99,,,-99.99,,2013-06-01 17:22:00,
2013-06-01 13:32:00,88.0,64.0,30.01,SW,233,3.0,-999.0,45,-99.99,,,-99.99,,2013-06-01 17:32:00,
2013-06-01 13:42:00,88.0,64.0,30.01,SW,233,3.0,-999.0,45,-99.99,,,-99.99,,2013-06-01 17:42:00,
2013-06-01 13:52:00,88.0,63.0,30.01,SW,228,0.0,-999.0,43,-99.99,,,-99.99,,2013-06-01 17:52:00,
2013-06-01 14:01:00,89.0,63.0,30.00,South,172,4.0,-999.0,42,-99.99,,,-99.99,,2013-06-01 18:01:00,
2013-06-01 14:12:00,89.0,63.0,30.00,South,172,4.0,-999.0,42,-99.99,,,-99.99,,2013-06-01 18:12:00,
2013-06-01 14:22:00,89.0,63.0,30.00,SSW,204,3.0,-999.0,42,-99.99,,,-99.99,,2013-06-01 18:22:00,
2013-06-01 14:32:00,88.0,63.0,29.99,SW,225,6.0,-999.0,43,-99.99,,,-99.99,,2013-06-01 18:32:00,
2013-06-01 14:42:00,88.0,63.0,29.99,SW,225,6.0,-999.0,43,-99.99,,,-99.99,,2013-06-01 18:42:00,
2013-06-01 14:52:00,89.0,62.0,29.99,SW,230,6.0,-999.0,41,-99.99,,,-99.99,,2013-06-01 18:52:00,
2013-06-01 15:02:00,89.0,62.0,29.98,SW,215,14.0,-999.0,41,-99.99,,,-99.99,,2013-06-01 19:02:00,
2013-06-01 15:11:00,89.0,62.0,29.98,SW,227,17.0,-999.0,41,-99.99,,,-99.99,,2013-06-01 19:11:00,
2013-06-01 15:21:00,89.0,62.0,29.98,SW,227,17.0,-999.0,41,-99.99,,,-99.99,,2013-06-01 19:21:00,
2013-06-01 15:32:00,90.0,62.0,29.97,SSE,151,5.0,-999.0,39,-99.99,,,-99.99,,2013-06-01 19:32:00,
2013-06-01 15:42:00,90.0,62.0,29.97,SSE,151,5.0,-999.0,39,-99.99,,,-99.99,,2013-06-01 19:42:00,
2013-06-01 15:52:00,90.0,61.0,29.97,WSW,253,3.0,-999.0,38,-99.99,,,-99.99,,2013-06-01 19:52:00,
2013-06-01 16:02:00,90.0,61.0,29.97,West,261,9.0,-999.0,38,-99.99,,,-99.99,,2013-06-01 20:02:00,
2013-06-01 16:12:00,90.0,61.0,29.97,West,261,9.0,-999.0,38,-99.99,,,-99.99,,2013-06-01 20:12:00,
2013-06-01 16:21:00,91.0,62.0,29.97,SW,225,10.0,-999.0,38,-99.99,,,-99.99,,2013-06-01 20:21:00,
2013-06-01 16:32:00,91.0,61.0,29.97,SW,236,5.0,-999.0,37,-99.99,,,-99.99,,2013-06-01 20:32:00,
2013-06-01 16:42:00,90.0,60.0,29.97,SW,227,9.0,-999.0,37,-99.99,,,-99.99,,2013-06-01 20:42:00,
2013-06-01 16:52:00,90.0,60.0,29.97,SW,227,9.0,-999.0,37,-99.99,,,-99.99,,2013-06-01 20:52:00,
2013-06-01 17:01:00,91.0,61.0,29.97,SW,234,8.0,-999.0,37,-99.99,,,-99.99,,2013-06-01 21:01:00,
2013-06-01 17:11:00,91.0,60.0,29.96,WSW,237,3.0,-999.0,36,-99.99,,,-99.99,,2013-06-01 21:11:00,
2013-06-01 17:22:00,91.0,60.0,29.96,WSW,237,3.0,-999.0,36,-99.99,,,-99.99,,2013-06-01 21:22:00,
2013-06-01 17:33:00,90.0,59.0,29.96,WSW,238,6.0,-999.0,36,-99.99,,,-99.99,,2013-06-01 21:33:00,
2013-06-01 17:43:00,90.0,59.0,29.96,WSW,238,6.0,-999.0,36,-99.99,,,-99.99,,2013-06-01 21:43:00,
2013-06-01 17:53:00,90.0,58.0,29.96,SW,229,8.0,-999.0,34,-99.99,,,-99.99,,2013-06-01 21:53:00,
2013-06-01 18:03:00,90.0,59.0,29.96,SSW,202,4.0,-999.0,36,-99.99,,,-99.99,,2013-06-01 22:03:00,
2013-06-01 18:12:00,90.0,59.0,29.96,SW,223,2.0,-999.0,36,-99.99,,,-99.99,,2013-06-01 22:12:00,
2013-06-01 18:23:00,90.0,59.0,29.96,SW,223,2.0,-999.0,36,-99.99,,,-99.99,,2013-06-01 22:23:00,
2013-06-01 18:33:00,89.0,59.0,29.95,SW,225,6.0,-999.0,36,-99.99,,,-99.99,,2013-06-01 22:33:00,
2013-06-01 18:42:00,89.0,59.0,29.95,SW,222,3.0,-999.0,37,-99.99,,,-99.99,,2013-06-01 22:42:00,
2013-06-01 18:53:00,89.0,59.0,29.95,SW,222,3.0,-999.0,37,-99.99,,,-99.99,,2013-06-01 22:53:00,
2013-06-01 19:02:00,88.0,58.0,29.95,SW,221,5.0,-999.0,37,-99.99,,,-99.99,,2013-06-01 23:02:00,
2013-06-01 19:12:00,88.0,58.0,29.95,SW,231,8.0,-999.0,37,-99.99,,,-99.99,,2013-06-01 23:12:00,
2013-06-01 19:22:00,88.0,58.0,29.95,SW,231,8.0,-999.0,37,-99.99,,,-99.99,,2013-06-01 23:22:00,
2013-06-01 19:32:00,88.0,59.0,29.95,SW,234,5.0,-999.0,38,-99.99,,,-99.99,,2013-06-01 23:32:00,
2013-06-01 19:42:00,88.0,59.0,29.95,SW,234,5.0,-999.0,38,-99.99,,,-99.99,,2013-06-01 23:42:00,
2013-06-01 19:52:00,88.0,59.0,29.96,SSW,213,2.0,-999.0,38,-99.99,,,-99.99,,2013-06-01 23:52:00,
2013-06-01 20:02:00,88.0,61.0,29.96,SSW,206,3.0,-999.0,40,-99.99,,,-99.99,,2013-06-02 00:02:00,
2013-06-01 20:11:00,88.0,61.0,29.96,SSW,206,3.0,-999.0,40,-99.99,,,-99.99,,2013-06-02 00:11:00,
2013-06-01 20:22:00,87.0,60.0,29.96,SSW,201,3.0,-999.0,41,-99.99,,,-99.99,,2013-06-02 00:22:00,
2013-06-01 20:32:00,87.0,62.0,29.96,SSW,199,3.0,-999.0,43,-99.99,,,-99.99,,2013-06-02 00:32:00,
2013-06-01 20:42:00,87.0,62.0,29.96,SSW,199,3.0,-999.0,43,-99.99,,,-99.99,,2013-06-02 00:42:00,
2013-06-01 20:51:00,86.0,62.0,29.96,South,175,0.0,-999.0,44,-99.99,,,-99.99,,2013-06-02 00:51:00,
2013-06-01 21:01:00,86.0,63.0,29.96,SSW,197,2.0,-999.0,46,-99.99,,,-99.99,,2013-06-02 01:01:00,
2013-06-01 21:11:00,86.0,63.0,29.96,SSW,197,2.0,-999.0,46,-99.99,,,-99.99,,2013-06-02 01:11:00,
2013-06-01 21:21:00,85.0,62.0,29.96,South,187,3.0,-999.0,46,-99.99,,,-99.99,,2013-06-02 01:21:00,
2013-06-01 21:32:00,84.0,64.0,29.97,SSE,166,1.0,-999.0,51,-99.99,,,-99.99,,2013-06-02 01:32:00,
2013-06-01 21:42:00,84.0,64.0,29.97,SSE,166,1.0,-999.0,51,-99.99,,,-99.99,,2013-06-02 01:42:00,
2013-06-01 21:52:00,83.0,65.0,29.98,South,171,7.0,-999.0,54,-99.99,,,-99.99,,2013-06-02 01:52:00,
2013-06-01 22:02:00,83.0,66.0,29.98,South,184,2.0,-999.0,56,-99.99,,,-99.99,,2013-06-02 02:02:00,
2013-06-01 22:12:00,83.0,66.0,29.98,South,184,2.0,-999.0,56,-99.99,,,-99.99,,2013-06-02 02:12:00,
2013-06-01 22:21:00,83.0,66.0,29.97,South,185,1.0,-999.0,56,-99.99,,,-99.99,,2013-06-02 02:21:00,
2013-06-01 22:32:00,82.0,66.0,29.98,South,183,5.0,-999.0,58,-99.99,,,-99.99,,2013-06-02 02:32:00,
2013-06-01 22:42:00,82.0,66.0,29.98,South,183,5.0,-999.0,58,-99.99,,,-99.99,,2013-06-02 02:42:00,
2013-06-01 22:52:00,82.0,66.0,29.97,SW,221,1.0,-999.0,58,-99.99,,,-99.99,,2013-06-02 02:52:00,
2013-06-01 23:02:00,82.0,66.0,29.97,SSW,212,7.0,-999.0,59,-99.99,,,-99.99,,2013-06-02 03:02:00,
2013-06-01 23:11:00,82.0,66.0,29.97,SSW,212,7.0,-999.0,59,-99.99,,,-99.99,,2013-06-02 03:11:00,
2013-06-01 23:21:00,81.0,66.0,29.97,SSW,200,7.0,-999.0,60,-99.99,,,-99.99,,2013-06-02 03:21:00,
2013-06-01 23:33:00,81.0,66.0,29.98,SW,231,3.0,-999.0,60,-99.99,,,-99.99,,2013-06-02 03:33:00,
2013-06-01 23:43:00,81.0,66.0,29.98,SW,231,3.0,-999.0,60,-99.99,,,-99.99,,2013-06-02 03:43:00,
2013-06-01 23:53:00,81.0,66.0,29.97,SW,225,0.0,-999.0,60,-99.99,,,-99.99,,2013-06-02 03:53:00,